Regional Weather Roundup
Issued by NWS Little Rock, AR

Home | Current Version | Previous Version | Graphics & Text | Print | Product List | Glossary On
Versions: 1 2 3 4 5 6 7 8 9 10 11 12 13 14 15 16 17 18 19 20 21 22 23 24 25 26 27
000
ASUS44 KLZK 190605
RWRLZK

WEATHER ROUNDUP FOR ARKANSAS
NATIONAL WEATHER SERVICE LITTLE ROCK AR
100 AM CDT SAT APR 19 2014

NOTE: "FAIR" INDICATES FEW OR NO CLOUDS BELOW 12,000 FEET WITH NO
SIGNIFICANT WEATHER AND/OR OBSTRUCTIONS TO VISIBILITY.

ARZ001-003-010-029-190700-
NORTHWEST ARKANSAS

CITY           SKY/WX    TMP DP  RH WIND       PRES   REMARKS
FAYETTEVILLE   FAIR      52  45  77 CALM      30.20S
6HR MIN TEMP:  51; 6HR MAX TEMP:  71;

FORT SMITH     FAIR      58  47  66 NE6       30.18S
6HR MIN TEMP:  57; 6HR MAX TEMP:  73;

HARRISON       FAIR      55  41  59 CALM      30.22F
6HR MIN TEMP:  53; 6HR MAX TEMP:  69;

BENTONVILLE    FAIR      54  41  62 CALM      30.21S
6HR MIN TEMP:  54; 6HR MAX TEMP:  70;

ROGERS         MOCLDY    57  44  62 E7        30.21S
6HR MIN TEMP:  56; 6HR MAX TEMP:  70;

SILOAM SPGS    FAIR      54  39  58 SE3       30.20S
6HR MIN TEMP:  54; 6HR MAX TEMP:  70;

HIGHFILL       FAIR      52  43  71 CALM      30.19F
6HR MIN TEMP:  52; 6HR MAX TEMP:  71;

$$

ARZ004-005-016-190700-
NORTH CENTRAL ARKANSAS

CITY           SKY/WX    TMP DP  RH WIND       PRES   REMARKS
BATESVILLE     FAIR      54  46  76 W3        30.21R
6HR MIN TEMP:  54; 6HR MAX TEMP:  70;

FLIPPIN        FAIR      52  37  58 CALM      30.23R
6HR MIN TEMP:  52; 6HR MAX TEMP:  72;

MTN HOME       FAIR      56  41  57 CALM      30.22R
6HR MIN TEMP:  54; 6HR MAX TEMP:  70;

$$

ARZ040-041-190700-
WEST CENTRAL ARKANSAS

CITY           SKY/WX    TMP DP  RH WIND       PRES   REMARKS
MENA           FAIR      50  50 100 CALM      30.20S
MOUNT IDA      FAIR      50  47  89 CALM      30.17F
6HR MIN TEMP:  50; 6HR MAX TEMP:  70;

$$

ARZ009-017-025-026-028-190700-
NORTHEAST ARKANSAS

CITY           SKY/WX    TMP DP  RH WIND       PRES   REMARKS
CORNING        FAIR      54  50  87 CALM      30.22S
JONESBORO      FAIR      55  46  71 CALM      30.20S
6HR MIN TEMP:  53; 6HR MAX TEMP:  69;

NEWPORT        FAIR      57  51  80 N3        30.22S
6HR MIN TEMP:  57; 6HR MAX TEMP:  69;

WALNUT RIDGE   FAIR      55  48  76 N5        30.21S
6HR MIN TEMP:  55; 6HR MAX TEMP:  70;

BLYTHEVILLE    FAIR      54  51  90 N6        30.20S
6HR MIN TEMP:  54; 6HR MAX TEMP:  69;

$$

ARZ022-023-033-042-044-190700-
CENTRAL ARKANSAS

CITY           SKY/WX    TMP DP  RH WIND       PRES   REMARKS
LITTLE ROCK    FAIR      56  49  77 CALM      30.20S
6HR MIN TEMP:  56; 6HR MAX TEMP:  70;

N LITTLE ROCK    N/A     60  50  69 NE5       30.20S
6HR MIN TEMP:  58; 6HR MAX TEMP:  69;

JACKSONVILLE   FAIR      51  47  87 CALM      30.20S
6HR MIN TEMP:  51; 6HR MAX TEMP:  67; 6HR PCP: TRACE;

SEARCY         FAIR      53  49  86 CALM      30.21S
6HR MIN TEMP:  52; 6HR MAX TEMP:  70;

HOT SPRINGS    FAIR      53  46  77 CALM      30.19F
6HR MIN TEMP:  52; 6HR MAX TEMP:  71;

RUSSELLVILLE   FAIR      51  47  86 CALM      30.19F
6HR MIN TEMP:  51; 6HR MAX TEMP:  72;

CLINTON        FAIR      48  46  93 CALM      30.23S FOG
$$

ARZ036-190700-
EAST ARKANSAS

CITY           SKY/WX    TMP DP  RH WIND       PRES   REMARKS
WEST MEMPHIS   FAIR      56  54  93 CALM      30.18S FOG
6HR MIN TEMP:  55; 6HR MAX TEMP:  69;

$$

ARZ050-053-066-070-073-190700-
SOUTHWEST ARKANSAS

CITY           SKY/WX    TMP DP  RH WIND       PRES   REMARKS
ARKADELPHIA    FAIR      53  52  97 CALM      30.19S
6HR MIN TEMP:  53; 6HR MAX TEMP:  70;

CAMDEN         FAIR      52  48  87 MISG      30.17F FOG
TEXARKANA      FAIR      55  50  83 CALM      30.18R
6HR MIN TEMP:  53; 6HR MAX TEMP:  70;

EL DORADO      FAIR      52  50  93 CALM      30.17F
6HR MIN TEMP:  52; 6HR MAX TEMP:  68;

DE QUEEN       FAIR      49  49 100 CALM      30.18R
6HR MIN TEMP:  49; 6HR MAX TEMP:  72;

$$

ARZ056-057-069-190700-
SOUTHEAST ARKANSAS

CITY           SKY/WX    TMP DP  RH WIND       PRES   REMARKS
PINE BLUFF     FAIR      55  52  89 CALM      30.19S
6HR MIN TEMP:  54; 6HR MAX TEMP:  70;

STUTTGART      FAIR      61  52  72 E5        30.20S
6HR MIN TEMP:  59; 6HR MAX TEMP:  70;

MONTICELLO     LGT RAIN  55  51  86 CALM      30.19S
6HR MIN TEMP:  54; 6HR MAX TEMP:  71; 6HR PCP: TRACE;


$$





USA.gov is the U.S. government's official web portal to all federal, state and local government web resources and services.